KC0AFB Weather Reports


Display with metric or nautical units.
time (UTC)temp
F
wind
direction
speed
MPH
gust
MPH
rain 1hr
in
rain 24hr
in
rain mn
in
humidity
%
barometer
mb
20260507083834 32 59 1.0 1.0 0.00 0.00 0.00 66 1011.7
20260507083330 32 64 2.0 2.0 0.00 0.00 0.00 66 1011.8
20260507082826 32 55 2.0 2.0 0.00 0.00 0.00 66 1011.7
20260507082322 32 61 2.0 2.0 0.00 0.00 0.00 66 1011.6
20260507081820 32 57 2.0 2.0 0.00 0.00 0.00 66 1011.8
20260507081315 32 59 2.0 2.0 0.00 0.00 0.00 67 1011.7
20260507080812 31 56 0.0 0.0 0.00 0.00 0.00 68 1011.8
20260507080309 30 73 0.0 0.0 0.00 0.00 0.00 70 1011.6
20260507075804 28 53 0.0 0.0 0.00 0.00 0.00 72 1011.5
20260507075300 28 82 0.0 0.0 0.00 0.00 0.00 71 1011.8
20260507074757 30 82 0.0 0.0 0.00 0.00 0.00 69 1011.7
20260507074255 30 72 0.0 0.0 0.00 0.00 0.00 69 1011.8
20260507073751 30 71 0.0 0.0 0.00 0.00 0.00 69 1011.7
20260507073248 29 71 0.0 0.0 0.00 0.00 0.00 70 1011.8
20260507072746 28 73 0.0 0.0 0.00 0.00 0.00 70 1011.7
20260507072243 30 73 0.0 0.0 0.00 0.00 0.00 68 1011.7
20260507071740 31 73 0.0 0.0 0.00 0.00 0.00 67 1011.6
20260507071236 32 73 0.0 0.0 0.00 0.00 0.00 65 1011.7
20260507070734 32 67 0.0 0.0 0.00 0.00 0.00 65 1011.8
20260507070230 32 52 0.0 0.0 0.00 0.00 0.00 65 1011.7
20260507065727 32 100 0.0 0.0 0.00 0.00 0.00 65 1011.7
20260507065223 33 158 0.0 0.0 0.00 0.00 0.00 64 1011.9
20260507064721 33 139 1.0 1.0 0.00 0.00 0.00 64 1012.0
20260507064215 34 107 2.0 2.0 0.00 0.00 0.00 62 1011.7
20260507063711 34 88 2.0 2.0 0.00 0.00 0.00 62 1011.8
20260507063208 34 90 2.0 2.0 0.00 0.00 0.00 63 1012.2
20260507062705 34 93 1.0 2.0 0.00 0.00 0.00 62 1011.9
20260507062203 34 127 3.0 3.0 0.00 0.00 0.00 62 1011.9
20260507061700 34 107 2.0 2.0 0.00 0.00 0.00 62 1011.8
20260507061158 34 100 2.0 2.0 0.00 0.00 0.00 63 1011.9
20260507060656 33 96 1.0 2.0 0.00 0.00 0.00 63 1012.0
20260507060152 34 86 1.0 1.0 0.00 0.00 0.00 62 1012.1
20260507055648 34 87 3.0 3.0 0.00 0.00 0.00 62 1011.7
20260507055144 34 89 2.0 2.0 0.00 0.00 0.00 61 1011.9
20260507054640 34 94 3.0 3.0 0.00 0.00 0.00 61 1012.0
20260507054137 35 73 3.0 3.0 0.00 0.00 0.00 61 1012.0
20260507053635 35 103 3.0 3.0 0.00 0.00 0.00 61 1012.0
20260507053133 35 101 3.0 3.0 0.00 0.00 0.00 61 1012.0
20260507052631 35 101 3.0 3.0 0.00 0.00 0.00 60 1012.1
20260507052127 35 99 3.0 3.0 0.00 0.00 0.00 60 1012.0
20260507051624 36 105 3.0 3.0 0.00 0.00 0.00 59 1012.0
20260507051121 36 110 3.0 3.0 0.00 0.00 0.00 58 1011.9
20260507050618 36 116 4.0 5.0 0.00 0.00 0.00 58 1012.1
20260507050115 36 110 3.0 3.0 0.00 0.00 0.00 58 1012.0
20260507045612 36 95 3.0 3.0 0.00 0.00 0.00 58 1012.1
20260507045108 36 87 3.0 3.0 0.00 0.00 0.00 58 1012.2
20260507044605 36 101 4.0 6.0 0.00 0.00 0.00 57 1012.4
20260507044102 37 95 4.0 5.0 0.00 0.00 0.00 56 1012.3
20260507043557 37 140 5.0 5.0 0.00 0.00 0.00 55 1012.4
20260507043055 38 77 3.0 5.0 0.00 0.00 0.00 54 1012.2
20260507042551 39 76 4.0 5.0 0.00 0.00 0.00 54 1012.4
20260507042047 38 74 4.0 5.0 0.00 0.00 0.00 54 1012.3
20260507041544 38 82 2.0 3.0 0.00 0.00 0.00 55 1012.3
20260507041041 38 83 3.0 3.0 0.00 0.00 0.00 54 1012.3
20260507040537 38 64 3.0 3.0 0.00 0.00 0.00 54 1012.5
20260507040033 39 75 3.0 3.0 0.00 0.00 0.00 51 1012.4
20260507035530 39 70 3.0 3.0 0.00 0.00 0.00 51 1012.6
20260507035026 39 71 3.0 3.0 0.00 0.00 0.00 51 1012.4
20260507034523 40 73 3.0 5.0 0.00 0.00 0.00 50 1012.6
20260507034021 40 62 4.0 5.0 0.00 0.00 0.00 50 1012.6
20260507033519 40 62 3.0 3.0 0.00 0.00 0.00 50 1012.9
20260507033016 40 69 3.0 3.0 0.00 0.00 0.00 50 1012.5
20260507032512 40 65 2.0 3.0 0.00 0.00 0.00 50 1012.9
20260507032009 40 71 3.0 3.0 0.00 0.00 0.00 50 1012.6
20260507031505 41 56 3.0 3.0 0.00 0.00 0.00 49 1012.6
20260507031003 41 64 3.0 5.0 0.00 0.00 0.00 49 1012.5
20260507030459 41 72 3.0 3.0 0.00 0.00 0.00 49 1012.6
20260507025956 41 60 3.0 3.0 0.00 0.00 0.00 49 1012.7
20260507025453 42 58 3.0 3.0 0.00 0.00 0.00 48 1012.9
20260507024951 42 57 3.0 3.0 0.00 0.00 0.00 48 1012.9
20260507024448 42 54 2.0 2.0 0.00 0.00 0.00 47 1012.7
20260507023944 42 49 3.0 5.0 0.00 0.00 0.00 47 1012.7
20260507023441 43 59 2.0 2.0 0.00 0.00 0.00 47 1012.6
20260507022938 43 58 2.0 2.0 0.00 0.00 0.00 46 1012.5
20260507022436 43 56 3.0 3.0 0.00 0.00 0.00 46 1012.9
20260507021931 44 49 3.0 3.0 0.00 0.00 0.00 45 1012.6
20260507021426 44 56 2.0 2.0 0.00 0.00 0.00 45 1012.6
20260507020924 44 59 2.0 2.0 0.00 0.00 0.00 44 1012.9
20260507020421 45 52 2.0 2.0 0.00 0.00 0.00 43 1012.7
20260507015918 45 51 1.0 2.0 0.00 0.00 0.00 44 1012.9
20260507015416 45 44 1.0 2.0 0.00 0.00 0.00 43 1012.5
20260507014913 46 52 1.0 1.0 0.00 0.00 0.00 43 1012.7
20260507014409 46 46 1.0 1.0 0.00 0.00 0.00 43 1012.5
20260507013905 46 48 2.0 3.0 0.00 0.00 0.00 42 1012.6
20260507013402 47 11 2.0 2.0 0.00 0.00 0.00 42 1012.5
20260507012859 47 25 0.0 0.0 0.00 0.00 0.00 42 1012.7
20260507012355 48 16 3.0 3.0 0.00 0.00 0.00 42 1012.6
20260507011847 48 341 4.0 5.0 0.00 0.00 0.00 41 1012.6
20260507011344 48 348 4.0 5.0 0.00 0.00 0.00 41 1012.7
20260507010838 49 34 1.0 2.0 0.00 0.00 0.00 40 1012.5
20260507010334 49 2 6.0 7.0 0.00 0.00 0.00 39 1012.9
20260507005831 49 7 5.0 6.0 0.00 0.00 0.00 38 1012.6
20260507005328 50 353 4.0 5.0 0.00 0.00 0.00 38 1012.7
20260507004824 50 335 5.0 7.0 0.00 0.00 0.00 38 1012.9
20260507004322 50 340 6.0 8.0 0.00 0.00 0.00 38 1013.0
20260507003819 50 29 5.0 6.0 0.00 0.00 0.00 38 1012.9
20260507003314 50 4 4.0 5.0 0.00 0.00 0.00 38 1013.1
20260507002809 51 349 6.0 8.0 0.00 0.00 0.00 37 1012.6
20260507002306 51 288 5.0 5.0 0.00 0.00 0.00 37 1012.9
20260507001757 51 355 6.0 8.0 0.00 0.00 0.00 37 1012.5
20260507001255 52 321 4.0 6.0 0.00 0.00 0.00 36 1012.9
20260507000751 51 319 7.0 8.0 0.00 0.00 0.00 37 1013.2
20260507000246 52 344 9.0 11.0 0.00 0.00 0.00 37 1013.2
20260506235743 50 300 4.0 5.0 0.00 0.00 0.00 38 1013.1
20260506235239 49 297 5.0 6.0 0.00 0.00 0.00 39 1013.1
20260506234736 50 344 3.0 5.0 0.00 0.00 0.00 39 1013.1
20260506234233 50 316 6.0 8.0 0.00 0.00 0.00 37 1013.2
20260506233731 50 331 8.0 9.0 0.00 0.00 0.00 38 1013.3
20260506233227 51 7 10.0 13.0 0.00 0.00 0.00 36 1013.3
20260506232724 50 335 5.0 6.0 0.00 0.00 0.00 39 1013.5
20260506232218 50 319 6.0 7.0 0.00 0.00 0.00 38 1013.3
20260506231716 51 288 6.0 8.0 0.00 0.00 0.00 39 1013.5
20260506231214 50 299 7.0 8.0 0.00 0.00 0.00 39 1013.4
20260506230710 50 330 5.0 7.0 0.00 0.00 0.00 41 1013.5
20260506230208 51 303 6.0 8.0 0.00 0.00 0.00 39 1013.5
20260506225704 50 305 8.0 9.0 0.00 0.00 0.00 38 1013.4
20260506225201 51 335 11.0 11.0 0.00 0.00 0.00 36 1013.8
20260506224657 50 320 4.0 5.0 0.00 0.00 0.00 40 1013.6
20260506224155 51 296 7.0 7.0 0.00 0.00 0.00 38 1013.6
20260506223651 52 272 8.0 9.0 0.00 0.00 0.00 38 1013.7
20260506223146 52 357 2.0 2.0 0.00 0.00 0.00 36 1013.7
20260506222644 51 22 7.0 9.0 0.00 0.00 0.00 39 1013.6
20260506222139 50 287 5.0 6.0 0.00 0.00 0.00 39 1013.6
20260506221638 52 301 10.0 13.0 0.00 0.00 0.00 38 1013.8
20260506221136 50 310 5.0 6.0 0.00 0.00 0.00 40 1013.7
20260506220632 51 308 5.0 7.0 0.00 0.00 0.00 41 1014.2
20260506220127 51 326 10.0 11.0 0.00 0.00 0.00 41 1013.9
20260506215624 52 254 8.0 11.0 0.00 0.00 0.00 39 1014.0
20260506215119 51 337 6.0 7.0 0.00 0.00 0.00 38 1014.1
20260506214616 49 338 4.0 5.0 0.00 0.00 0.00 42 1014.2
20260506214114 52 326 7.0 10.0 0.00 0.00 0.00 41 1014.3
20260506213612 51 305 2.0 2.0 0.00 0.00 0.00 45 1014.0
20260506213109 50 289 7.0 8.0 0.00 0.00 0.00 42 1014.3
20260506212606 49 292 7.0 8.0 0.00 0.00 0.00 43 1014.3
20260506212101 50 295 8.0 8.0 0.00 0.00 0.00 42 1014.4
20260506211556 49 297 7.0 8.0 0.00 0.00 0.00 44 1014.8
20260506211048 50 285 7.0 10.0 0.00 0.00 0.00 42 1014.5
20260506210545 48 298 10.0 13.0 0.00 0.00 0.00 42 1014.6
20260506210041 49 328 7.0 8.0 0.00 0.00 0.00 44 1014.8
20260506205538 49 289 7.0 8.0 0.00 0.00 0.00 43 1014.9
20260506205033 47 267 9.0 13.0 0.00 0.00 0.00 44 1014.9
20260506204532 47 300 8.0 9.0 0.00 0.00 0.00 45 1014.9
20260506204028 48 309 5.0 6.0 0.00 0.00 0.00 43 1015.1
20260506203527 49 291 8.0 9.0 0.00 0.00 0.00 42 1015.0
20260506203023 51 313 7.0 11.0 0.00 0.00 0.00 43 1015.3
20260506202520 52 296 4.0 7.0 0.00 0.00 0.00 42 1015.3
20260506202016 50 314 6.0 9.0 0.00 0.00 0.00 43 1015.4
20260506201515 49 293 7.0 9.0 0.00 0.00 0.00 45 1015.4
20260506201011 48 312 7.0 8.0 0.00 0.00 0.00 46 1015.4
20260506200507 47 327 2.0 2.0 0.00 0.00 0.00 44 1015.3
20260506200004 48 252 6.0 7.0 0.00 0.00 0.00 46 1015.4
20260506195500 47 329 6.0 8.0 0.00 0.00 0.00 47 1015.5
20260506194956 46 346 7.0 8.0 0.00 0.00 0.00 47 1015.8
20260506194454 47 295 5.0 6.0 0.00 0.00 0.00 46 1015.5
20260506193945 47 319 4.0 6.0 0.00 0.00 0.00 47 1015.9
20260506193442 48 358 6.0 7.0 0.00 0.00 0.00 46 1015.6
20260506192939 47 335 5.0 7.0 0.00 0.00 0.00 51 1016.1
20260506192436 47 108 2.0 2.0 0.00 0.00 0.00 47 1015.9
20260506191932 46 300 8.0 10.0 0.00 0.00 0.00 47 1015.9
20260506191429 47 275 6.0 8.0 0.00 0.00 0.00 48 1016.1
20260506190926 45 357 3.0 3.0 0.00 0.00 0.00 48 1016.1
20260506190422 46 351 7.0 9.0 0.00 0.00 0.00 47 1016.2
20260506185919 48 310 6.0 9.0 0.00 0.00 0.00 49 1016.2
20260506185417 48 347 8.0 11.0 0.00 0.00 0.00 50 1016.1
20260506184914 47 293 5.0 6.0 0.00 0.00 0.00 50 1016.3
20260506184410 44 23 5.0 7.0 0.00 0.00 0.00 49 1016.4
20260506183908 46 342 4.0 6.0 0.00 0.00 0.00 49 1016.7
20260506183403 45 352 9.0 13.0 0.00 0.00 0.00 50 1016.7
20260506182900 46 316 8.0 11.0 0.00 0.00 0.00 49 1016.9
20260506182357 46 281 6.0 8.0 0.00 0.00 0.00 52 1016.8
20260506181854 45 296 5.0 7.0 0.00 0.00 0.00 50 1016.9
20260506181353 45 315 4.0 6.0 0.00 0.00 0.00 56 1016.9
20260506180849 44 333 2.0 2.0 0.00 0.00 0.00 50 1017.1
20260506180345 44 301 7.0 8.0 0.00 0.00 0.00 50 1017.1
20260506175843 45 303 2.0 2.0 0.00 0.00 0.00 49 1017.2
20260506175339 44 291 7.0 8.0 0.00 0.00 0.00 49 1017.2
20260506174836 45 305 7.0 7.0 0.00 0.00 0.00 49 1017.1
20260506174333 44 259 4.0 5.0 0.00 0.00 0.00 50 1017.2
20260506173831 44 272 4.0 5.0 0.00 0.00 0.00 50 1017.4
20260506173327 44 346 3.0 3.0 0.00 0.00 0.00 51 1017.3
20260506172825 43 348 4.0 5.0 0.00 0.00 0.00 50 1017.5
20260506172321 43 269 5.0 6.0 0.00 0.00 0.00 52 1017.7
20260506171819 43 283 11.0 11.0 0.00 0.00 0.00 50 1017.6
20260506171316 43 290 6.0 7.0 0.00 0.00 0.00 49 1017.7
20260506170813 43 345 9.0 10.0 0.00 0.00 0.00 51 1017.6
20260506170309 42 333 7.0 8.0 0.00 0.00 0.00 51 1017.7
20260506165808 42 336 3.0 3.0 0.00 0.00 0.00 50 1017.9
20260506165306 42 328 6.0 7.0 0.00 0.00 0.00 51 1017.7
20260506164802 42 345 7.0 8.0 0.00 0.00 0.00 51 1017.9
20260506164259 42 303 4.0 5.0 0.00 0.00 0.00 51 1018.0
20260506163755 42 359 8.0 10.0 0.00 0.00 0.00 52 1017.9
20260506163250 42 295 5.0 6.0 0.00 0.00 0.00 51 1018.0
20260506162746 42 298 5.0 6.0 0.00 0.00 0.00 52 1018.0
20260506162244 42 250 4.0 5.0 0.00 0.00 0.00 52 1018.2
20260506161742 41 348 4.0 5.0 0.00 0.00 0.00 55 1018.1
20260506161239 41 12 3.0 3.0 0.00 0.00 0.00 54 1018.2
20260506160736 41 293 5.0 7.0 0.00 0.00 0.00 53 1018.1
20260506160233 40 307 7.0 8.0 0.00 0.00 0.00 54 1018.1
20260506155731 41 348 3.0 3.0 0.00 0.00 0.00 53 1018.1
20260506155228 41 306 6.0 7.0 0.00 0.00 0.00 54 1018.3
20260506153335 39 310 5.0 6.0 0.00 0.00 0.00 53 1018.2
20260506152832 41 273 5.0 6.0 0.00 0.00 0.00 53 1018.1
20260506152329 42 197 1.0 1.0 0.00 0.00 0.00 54 1018.2
20260506151828 41 16 3.0 5.0 0.00 0.00 0.00 54 1018.2
20260506151324 39 324 3.0 5.0 0.00 0.00 0.00 55 1018.5
20260506150821 39 252 3.0 3.0 0.00 0.00 0.00 54 1018.3
20260506150318 40 354 2.0 3.0 0.00 0.00 0.00 54 1018.5
20260506145815 39 298 3.0 3.0 0.00 0.00 0.00 54 1018.3
20260506145311 40 245 4.0 5.0 0.00 0.00 0.00 57 1018.3
20260506144809 40 321 4.0 5.0 0.00 0.00 0.00 57 1018.6
20260506144305 38 190 4.0 5.0 0.00 0.00 0.00 58 1018.9
20260506143804 37 327 3.0 3.0 0.00 0.00 0.00 59 1018.6
20260506143300 37 213 3.0 3.0 0.00 0.00 0.00 60 1018.6
20260506142759 37 281 3.0 3.0 0.00 0.00 0.00 61 1018.8
20260506142256 37 223 3.0 3.0 0.00 0.00 0.00 62 1018.6
20260506141755 37 241 4.0 5.0 0.00 0.00 0.00 61 1018.6
20260506141253 36 238 3.0 3.0 0.00 0.00 0.00 64 1018.7
20260506140750 36 222 3.0 3.0 0.00 0.00 0.00 67 1018.7
20260506140247 35 188 3.0 3.0 0.00 0.00 0.00 67 1018.3
20260506135744 35 200 1.0 2.0 0.00 0.00 0.00 69 1018.3
20260506135240 34 212 2.0 2.0 0.00 0.00 0.00 68 1018.7
20260506134736 34 186 1.0 1.0 0.00 0.00 0.00 70 1018.7
20260506134233 33 34 1.0 1.0 0.00 0.00 0.00 72 1018.5
20260506133731 32 335 2.0 2.0 0.00 0.00 0.00 73 1018.5
20260506133227 32 212 2.0 2.0 0.00 0.00 0.00 74 1018.7
20260506132724 32 174 1.0 1.0 0.00 0.00 0.00 76 1018.6
20260506132221 32 224 2.0 2.0 0.00 0.00 0.00 76 1018.6
20260506131719 31 211 1.0 2.0 0.00 0.00 0.00 77 1018.6
20260506131215 31 164 1.0 1.0 0.00 0.00 0.00 78 1018.6
20260506130712 31 211 1.0 2.0 0.00 0.00 0.00 79 1018.6
20260506130209 30 231 1.0 1.0 0.00 0.00 0.00 80 1018.7
20260506125706 30 164 0.0 0.0 0.00 0.00 0.00 80 1018.3
20260506125204 30 229 1.0 1.0 0.00 0.00 0.00 80 1018.6
20260506124702 30 227 1.0 1.0 0.00 0.00 0.00 78 1018.3
20260506124200 30 19 1.0 1.0 0.00 0.00 0.00 76 1018.5
20260506123657 29 54 0.0 0.0 0.00 0.00 0.00 76 1018.1
20260506123156 29 53 0.0 0.0 0.00 0.00 0.00 77 1018.1
20260506122652 29 54 0.0 0.0 0.00 0.00 0.00 77 1018.1
20260506122150 28 53 0.0 1.0 0.00 0.00 0.00 77 1018.1
20260506121647 28 53 0.0 1.0 0.00 0.00 0.00 77 1018.2
20260506121143 28 33 0.0 0.0 0.00 0.00 0.00 77 1018.0
20260506120642 28 27 1.0 1.0 0.00 0.00 0.00 76 1018.1
20260506120138 28 16 1.0 1.0 0.00 0.00 0.00 76 1017.9
20260506115637 28 15 1.0 1.0 0.00 0.00 0.00 76 1018.1
20260506115135 28 36 1.0 1.0 0.00 0.00 0.00 76 1017.8
20260506114632 28 345 1.0 2.0 0.00 0.00 0.00 75 1018.1
20260506114130 28 99 0.0 0.0 0.00 0.00 0.00 76 1017.7
20260506113628 27 99 1.0 1.0 0.00 0.00 0.00 77 1017.9
20260506113125 27 99 0.0 0.0 0.00 0.00 0.00 77 1017.8
20260506112621 27 99 1.0 1.0 0.00 0.00 0.00 77 1018.1
20260506112119 27 100 0.0 0.0 0.00 0.00 0.00 78 1018.0
20260506111616 26 100 0.0 0.0 0.00 0.00 0.00 79 1017.9
20260506111114 26 100 0.0 0.0 0.00 0.00 0.00 79 1017.5
20260506110611 26 100 0.0 0.0 0.00 0.00 0.00 79 1017.8
20260506110108 26 150 0.0 0.0 0.00 0.00 0.00 79 1017.9
20260506105604 26 150 0.0 0.0 0.00 0.00 0.00 79 1017.7
20260506105102 26 174 1.0 1.0 0.00 0.00 0.00 79 1017.7
20260506104600 26 150 0.0 0.0 0.00 0.00 0.00 78 1017.8
20260506104057 26 159 0.0 1.0 0.00 0.00 0.00 78 1017.7
20260506103554 26 150 0.0 0.0 0.00 0.00 0.00 77 1017.5
20260506103051 26 160 0.0 0.0 0.00 0.00 0.00 77 1017.6
20260506102549 27 184 1.0 1.0 0.00 0.00 0.00 76 1017.9
20260506102046 27 162 1.0 1.0 0.00 0.00 0.00 75 1017.7
20260506101543 27 106 1.0 1.0 0.00 0.00 0.00 74 1017.7
20260506101040 28 103 0.0 1.0 0.00 0.00 0.00 73 1017.7
20260506100538 28 22 2.0 2.0 0.00 0.00 0.00 72 1018.0
20260506100036 28 20 2.0 2.0 0.00 0.00 0.00 73 1017.8
20260506095535 28 26 1.0 1.0 0.00 0.00 0.00 73 1017.6
20260506095030 28 26 1.0 1.0 0.00 0.00 0.00 73 1017.6
20260506094528 28 22 1.0 1.0 0.00 0.00 0.00 73 1017.9
20260506094026 28 26 1.0 2.0 0.00 0.00 0.00 73 1017.8
20260506093524 28 27 1.0 1.0 0.00 0.00 0.00 73 1017.7
20260506093021 28 28 1.0 1.0 0.00 0.00 0.00 74 1017.7
20260506092519 27 34 1.0 1.0 0.00 0.00 0.00 75 1017.8
20260506092015 27 30 1.0 1.0 0.00 0.00 0.00 74 1017.7
20260506091514 28 23 2.0 2.0 0.00 0.00 0.00 74 1017.8
20260506091011 28 13 2.0 2.0 0.00 0.00 0.00 73 1017.8
20260506090509 28 25 1.0 2.0 0.00 0.00 0.00 73 1017.6
20260506090005 28 24 1.0 2.0 0.00 0.00 0.00 73 1017.7
20260506085502 27 20 2.0 2.0 0.00 0.00 0.00 74 1017.6
20260506084958 27 29 1.0 1.0 0.00 0.00 0.00 75 1017.4
20260506084455 26 36 0.0 1.0 0.00 0.00 0.00 76 1017.6
20260506083951 26 35 0.0 0.0 0.00 0.00 0.00 76 1017.6